[[{"header":{"parameterUnit":"m.s-1","parameterCategory":2,"la1":30.2991,"la2":30.254,"lo1":-89.0895,"lo2":-89.0444,"dy":0.0017,"dx":0.0017,"nx":28,"ny":28,"refTime":"2025-08-03T21:00:00:Z","depth":"0","parameterNumber":2,"parameterNumberName":"U-component_of_CURRENTS"},"data":[0,0,0,0,0,0,0,0,0,0,0,0,0,0,0,0,0,0,0,0,0,0,0,0,0,0,0,0,0,0,0,0,0,0,0,0,0,0,0,0,0,0,0,0,0,0,0,0,0,0,0,0,0,0,0,0,0,0,0.3224,0.3225,0,0.3255,0.3256,0.3256,0.325,0.3249,0.3249,0.3249,0.339,0.3394,0.3398,0,0,0,0,0,0,0,0,0,0,0,0,0,0.3191,0.3191,0.3224,0.3225,0.3226,0.3255,0.3256,0.3256,0.325,0.3249,0.3249,0.3249,0.3389,0.3393,0.3398,0,0,0,0,0,0,0,0,0,0,0,0,0,0.3209,0.3191,0.3224,0.3229,0.323,0.3255,0.3256,0.3256,0.325,0.3249,0.3249,0.3249,0.3387,0.3393,0.3399,0.3444,0,0,0.3417,0.342,0,0,0,0,0,0,0,0,0.3208,0.321,0.3227,0.3228,0.323,0.3251,0.3296,0.3325,0.325,0.3239,0.3249,0.3248,0.3356,0.3365,0.3365,0.345,0.3456,0.3418,0.3421,0.3424,0.3426,0,0,0,0,0,0,0,0.3206,0.3208,0.3233,0.3228,0.323,0.324,0.3242,0.3301,0.3299,0.324,0.324,0.3249,0.3357,0.3359,0.3369,0.3458,0.3417,0.3423,0.3427,0.3429,0.3677,0.368,0,0,0,0,0,0,0.3208,0.3207,0.3232,0.3234,0.3221,0.3241,0.3243,0.3242,0.3296,0.3304,0.3249,0.3249,0.3349,0.3362,0.3374,0.3527,0.3424,0.3429,0.3433,0.3674,0.3677,0.3681,0,0,0,0,0,0,0.3207,0.321,0.3231,0.3225,0.3229,0.3242,0.3242,0.3243,0.3247,0.3302,0.3312,0.3253,0.3349,0.3366,0.3444,0.3529,0.3432,0.3438,0.367,0.3675,0.3679,0.3771,0,0,0,0,0,0,0.3206,0.3209,0.3207,0.3225,0.3229,0.3256,0.3242,0.3244,0.3255,0.3254,0.3309,0.3321,0.335,0.3435,0.345,0.3535,0.3442,0.3666,0.3672,0.3678,0.3764,0.3778,0.379,0,0,0,0,0,0.3204,0.3206,0.3206,0.321,0.3226,0.3258,0.3261,0.3267,0.3256,0.3267,0.3309,0.332,0.3482,0.3442,0.3459,0.3548,0.3664,0.3671,0.3677,0.3759,0.3775,0.379,0,0,0,0,0,0,0.3196,0.3207,0.3207,0.3213,0.3238,0.3258,0.3268,0.327,0.3307,0.3311,0.3349,0.3366,0.3473,0.3489,0.3444,0.3635,0.3579,0.359,0.3636,0.3652,0.3664,0.3784,0.3447,0,0,0,0,0,0.3193,0.3194,0.3216,0.3225,0.3235,0.325,0.3262,0.3271,0.3306,0.3319,0.3359,0.3422,0.3514,0.356,0.3624,0.3721,0.381,0.3792,0.3804,0.3815,0.3925,0.4108,0.415,0.3703,0.3703,0.3703,0,0,0.3192,0.3201,0.3201,0.3223,0.3238,0.3328,0.3255,0.3282,0.3385,0.3335,0.3462,0.3464,0.3547,0.3663,0.3714,0.3688,0.3975,0.3824,0.3833,0.3939,0.412,0.4164,0.4204,0.3707,0.3706,0.3706,0,0,0.3253,0.32,0.326,0.3293,0.3331,0.3351,0.3364,0.339,0.3421,0.351,0.3532,0.3603,0.3684,0.3798,0.3863,0.3993,0.4032,0.397,0.4148,0.432,0.4361,0.4398,0.4508,0.4554,0.3982,0.3982,0.3982,0,0.3272,0.3345,0.3282,0.3381,0.3442,0.3382,0.3509,0.3541,0.3597,0.366,0.3568,0.3763,0.3792,0.4036,0.4071,0.4038,0.4105,0.4072,0.4343,0.4382,0.4418,0.4523,0.4573,0.3987,0.3987,0.3986,0.3986,0,0.3421,0.3482,0.3515,0.3633,0.3681,0.375,0.3806,0.3849,0.3838,0.3881,0.403,0.4045,0.4181,0.417,0.4167,0.4442,0.4391,0.4329,0.4309,0.447,0.4567,0.4617,0.3995,0.3993,0.3991,0.399,0,0,0.3493,0.3605,0.3623,0.3728,0.3819,0.3881,0.4037,0.4176,0.4314,0.4293,0.4494,0.4579,0.4533,0.461,0.4589,0.4724,0.4976,0.4639,0.4645,0.4762,0.5329,0.517,0.5208,0.4941,0.4952,0.496,0.5272,0,0.3656,0.3857,0.3888,0.4116,0.4233,0.4248,0.4415,0.4519,0.4567,0.4721,0.4733,0.4872,0.472,0.4764,0.4891,0.4965,0.5125,0.4898,0.5152,0.5161,0.5012,0.5269,0.501,0.5258,0.5321,0.5329,0.5335,0,0.3855,0.3947,0.4174,0.4377,0.4433,0.4564,0.4792,0.4933,0.511,0.514,0.5247,0.5229,0.5428,0.5245,0.5518,0.5364,0.5408,0.5431,0.5441,0.5331,0.5102,0.5122,0.5347,0.5131,0.5413,0.5407,0.5401,0,0.3975,0.4182,0.4354,0.4421,0.4622,0.4747,0.4865,0.5057,0.5187,0.5412,0.5482,0.5673,0.5732,0.5865,0.5823,0.5717,0.6094,0.5946,0.5867,0.5851,0.5717,0.5672,0.5795,0.624,0.6239,0.6238,0.6237,0,0.4174,0.4329,0.4409,0.4516,0.4747,0.4854,0.5121,0.526,0.546,0.5604,0.5688,0.5795,0.5887,0.6019,0.6025,0.6097,0.626,0.6022,0.5982,0.5725,0.5679,0.5546,0.5449,0.625,0.6247,0.6245,0.6243,0,0.4359,0.4386,0.4609,0.4775,0.482,0.5,0.5215,0.5379,0.555,0.5748,0.5804,0.5957,0.6105,0.6188,0.6398,0.6309,0.6242,0.6409,0.6059,0.5975,0.5641,0.5557,0.5619,0.546,0.6432,0.6431,0.643,0,0.4496,0.4608,0.4772,0.4838,0.4922,0.5122,0.5233,0.5415,0.5533,0.5778,0.5848,0.6056,0.6125,0.6383,0.6346,0.6447,0.6227,0.623,0.601,0.5707,0.5589,0.5375,0.522,0.5848,0.5842,0.5837,0.5834,0,0.4753,0.4781,0.491,0.5006,0.5104,0.5232,0.5372,0.5448,0.5604,0.5714,0.5817,0.5912,0.6116,0.6065,0.6189,0.6188,0.5901,0.6133,0.5963,0.5324,0.4974,0.4764,0.5505,0.5792,0.5797,0.58,0.5802,0.5804,0.4919,0.5014,0.5074,0.5175,0.5244,0.5256,0.5288,0.5351,0.5429,0.5468,0.566,0.5708,0.5765,0.5882,0.5865,0.56,0.5622,0.5381,0.5364,0.522,0.4904,0.5528,0.5653,0.5656,0.5659,0.5661,0.5663,0,0.505,0.5084,0.5205,0.5232,0.524,0.5265,0.5288,0.5204,0.5128,0.5258,0.5297,0.5301,0.5256,0.528,0.5068,0.484,0.4658,0.4694,0.4357,0.4286,0.4989,0.479,0.4555,0.4555,0.4556,0.4556,0.4556,0.4556,0.5111,0.5169,0.5175,0.5142,0.5139,0.5006,0.4946,0.4805,0.4817,0.4672,0.4644,0.4758,0.4763,0.4663,0.4358,0.4252,0.3914,0.3754,0.3774,0.4242,0.4302,0.4359,0.415,0.3785,0.3784,0.2868,0.286,0.2855]},{"header":{"parameterUnit":"m.s-1","parameterCategory":2,"la1":30.2991,"la2":30.254,"lo1":-89.0895,"lo2":-89.0444,"dy":0.0017,"dx":0.0017,"nx":28,"ny":28,"refTime":"2025-08-03T21:00:00:Z","depth":"0","parameterNumber":3,"parameterNumberName":"V-component_of_CURRENTS"},"data":[0,0,0,0,0,0,0,0,0,0,0,0,0,0,0,0,0,0,0,0,0,0,0,0,0,0,0,0,0,0,0,0,0,0,0,0,0,0,0,0,0,0,0,0,0,0,0,0,0,0,0,0,0,0,0,0,0,0,0.0093,0.0093,0,0.0004,0.0002,0.0001,-0.0061,-0.0061,-0.0061,-0.0062,-0.0164,-0.0166,-0.0169,0,0,0,0,0,0,0,0,0,0,0,0,0,0.0141,0.0141,0.0093,0.0093,0.0092,0.0004,0.0002,0.0001,-0.0061,-0.0061,-0.0061,-0.0062,-0.0163,-0.0166,-0.0169,0,0,0,0,0,0,0,0,0,0,0,0,0,0.0091,0.0141,0.0094,0.0052,0.0047,0.0004,0.0002,0.0001,-0.0061,-0.0061,-0.0061,-0.0062,-0.0162,-0.0166,-0.0169,-0.0183,0,0,-0.0181,-0.0182,0,0,0,0,0,0,0,0,0.0094,0.009,0.0059,0.0054,0.0049,-0.0016,-0.0018,-0.0061,-0.006,-0.0022,-0.0062,-0.0062,-0.0114,-0.0122,-0.014,-0.0188,-0.0193,-0.0181,-0.0183,-0.0185,-0.0186,0,0,0,0,0,0,0,0.0098,0.0093,0.0056,0.0058,0.0052,0.0013,0.0006,-0.0027,-0.0066,-0.0025,-0.0029,-0.0036,-0.0117,-0.0136,-0.0143,-0.0194,-0.0181,-0.0184,-0.0186,-0.0188,-0.0232,-0.0231,0,0,0,0,0,0,0.0117,0.0096,0.0059,0.0053,0.0073,0.0013,0.0005,0.0004,-0.0066,-0.0076,-0.0036,-0.0039,-0.013,-0.0139,-0.0147,-0.0119,-0.0185,-0.0188,-0.019,-0.0233,-0.0232,-0.0231,0,0,0,0,0,0,0.0119,0.0115,0.0062,0.0074,0.0065,0.0014,0.0012,0.0002,-0.0013,-0.0073,-0.0084,-0.004,-0.0131,-0.0142,-0.0162,-0.0125,-0.019,-0.0193,-0.0234,-0.0233,-0.0231,-0.0094,0,0,0,0,0,0,0.0121,0.0116,0.0121,0.0076,0.0065,0.0051,0.0012,0.0001,-0.0016,-0.0021,-0.008,-0.0091,-0.0132,-0.0156,-0.0166,-0.0131,-0.0196,-0.0236,-0.0234,-0.0232,-0.01,-0.0088,-0.0078,0,0,0,0,0,0.0123,0.0137,0.0122,0.0117,0.0074,0.0052,0.0043,0.0003,-0.0015,-0.0014,-0.0051,-0.0089,-0.0151,-0.0158,-0.017,-0.0135,-0.0237,-0.0234,-0.0232,-0.0105,-0.009,-0.0078,0,0,0,0,0,0,0.0156,0.013,0.0113,0.0117,0.0092,0.0043,0.0039,0.0013,-0.0018,-0.0021,-0.0079,-0.0091,-0.0094,-0.0138,-0.0145,-0.0144,-0.0199,-0.0198,-0.0098,-0.0085,-0.0074,-0.0003,-0.0199,0,0,0,0,0,0.0168,0.0173,0.0138,0.0141,0.0134,0.0089,0.0074,0.005,0.0017,0.0003,-0.0038,-0.0077,-0.0094,-0.0108,-0.014,-0.0142,-0.0123,-0.0128,-0.0117,-0.0107,-0.0058,0.0023,0.0048,-0.0223,-0.0223,-0.0223,0,0,0.0177,0.0167,0.0167,0.0149,0.0125,0.0136,0.0079,0.0068,0.0085,-0.0002,0.0003,-0.0041,-0.0087,-0.0084,-0.0089,-0.0115,-0.0029,-0.0104,-0.0095,-0.0051,0.0028,0.0056,0.008,-0.0222,-0.0222,-0.0222,0,0,0.0217,0.0196,0.0221,0.0211,0.0191,0.0169,0.0173,0.0133,0.0123,0.0115,0.0071,0.0066,0.0004,0.0006,-0.0006,0.0048,0.0027,0.0013,0.013,0.0208,0.0232,0.0254,0.0286,0.031,0.002,0.002,0.002,0,0.023,0.0268,0.0223,0.0249,0.0263,0.0195,0.0239,0.0213,0.0173,0.0197,0.0135,0.0122,0.0066,0.0126,0.0133,0.0082,0.0103,0.0085,0.0229,0.0251,0.0272,0.0299,0.0323,0.0027,0.0026,0.0025,0.0025,0,0.0298,0.0327,0.0342,0.0362,0.0363,0.0387,0.0359,0.0364,0.0337,0.0321,0.0357,0.0292,0.0301,0.0265,0.0209,0.0322,0.028,0.0237,0.0209,0.0309,0.0328,0.0352,0.0037,0.0034,0.0032,0.003,0,0,0.0347,0.0387,0.0396,0.0442,0.0437,0.0453,0.0491,0.0529,0.0594,0.0531,0.0631,0.057,0.0541,0.0528,0.0465,0.0512,0.0636,0.0439,0.0439,0.0495,0.0789,0.0708,0.0724,0.0623,0.0629,0.0633,0.0736,0,0.0427,0.0519,0.0517,0.0611,0.0662,0.0641,0.0695,0.0713,0.0715,0.078,0.0739,0.0782,0.0637,0.066,0.0685,0.0675,0.0709,0.0611,0.0664,0.0666,0.0604,0.0754,0.0678,0.0761,0.0759,0.0763,0.0766,0,0.0519,0.0573,0.0682,0.078,0.0804,0.0844,0.0956,0.0993,0.105,0.1062,0.1092,0.1049,0.1111,0.0966,0.1021,0.0966,0.0895,0.0858,0.086,0.0768,0.0631,0.0664,0.0803,0.0532,0.0801,0.0798,0.0796,0,0.0607,0.0705,0.0808,0.0832,0.0909,0.0975,0.1023,0.1087,0.1152,0.1257,0.1328,0.1358,0.141,0.1362,0.1242,0.116,0.1298,0.1174,0.1026,0.1016,0.0959,0.0936,0.0874,0.1221,0.1221,0.122,0.122,0,0.0714,0.0795,0.086,0.091,0.1044,0.1076,0.1217,0.1273,0.1381,0.1498,0.148,0.1595,0.1519,0.1544,0.1391,0.1312,0.1419,0.1108,0.1074,0.0994,0.0974,0.0736,0.0582,0.1224,0.1223,0.1222,0.1222,0,0.0789,0.083,0.0943,0.1045,0.1079,0.1173,0.1294,0.1399,0.1508,0.1675,0.1726,0.1831,0.1907,0.1789,0.1757,0.1528,0.1287,0.1359,0.1246,0.1196,0.0759,0.0615,0.057,0.046,0.1239,0.1238,0.1237,0,0.0835,0.0903,0.1014,0.1069,0.1112,0.1235,0.1319,0.1436,0.1552,0.1811,0.1915,0.2063,0.2184,0.2113,0.1811,0.16,0.1321,0.1287,0.1106,0.0786,0.0602,0.0494,0.0396,0.1067,0.1065,0.1063,0.1062,0,0.0914,0.0946,0.1024,0.1123,0.1213,0.1332,0.1472,0.1585,0.1765,0.1956,0.2241,0.2389,0.2343,0.2166,0.1842,0.1617,0.1068,0.124,0.0977,0.0545,0.0367,0.0225,0.0903,0.1047,0.1048,0.105,0.105,0.1051,0.0952,0.1003,0.1081,0.1179,0.1285,0.1433,0.1562,0.1755,0.1991,0.235,0.2464,0.2793,0.2415,0.2019,0.1676,0.0928,0.0976,0.0641,0.052,0.0462,0.0283,0.0904,0.0954,0.0955,0.0956,0.0956,0.0957,0,0.0976,0.1028,0.1126,0.1249,0.1374,0.1427,0.1664,0.1844,0.2161,0.2558,0.2856,0.291,0.2364,0.1806,0.0808,0.0284,0.0091,0.0005,-0.0175,-0.022,0.0399,0.031,0.0142,0.0142,0.0142,0.0142,0.0143,0.0143,0.0985,0.1056,0.11,0.1284,0.1393,0.1602,0.1755,0.2066,0.2398,0.2907,0.3221,0.3462,0.2933,0.1087,-0.0117,-0.0362,-0.0733,-0.0812,-0.0928,-0.0572,-0.0523,-0.0476,-0.0595,-0.0951,-0.0953,-0.1524,-0.153,-0.1535]}],[{"header":{"parameterUnit":"m.s-1","parameterCategory":2,"la1":30.2991,"la2":30.254,"lo1":-89.0895,"lo2":-89.0444,"dy":0.0017,"dx":0.0017,"nx":28,"ny":28,"refTime":"2025-08-03T21:00:00:Z","depth":"2","parameterNumber":2,"parameterNumberName":"U-component_of_CURRENTS"},"data":[0,0,0,0,0,0,0,0,0,0,0,0,0,0,0,0,0,0,0,0,0,0,0,0,0,0,0,0,0,0,0,0,0,0,0,0,0,0,0,0,0,0,0,0,0,0,0,0,0,0,0,0,0,0,0,0,0,0,0.2665,0.2666,0,0.2713,0.2714,0.2714,0.2725,0.2725,0.2725,0.2725,0.2786,0.2787,0.2789,0,0,0,0,0,0,0,0,0,0,0,0,0,0.2596,0.2597,0.2665,0.2666,0.2667,0.2713,0.2714,0.2714,0.2725,0.2725,0.2725,0.2725,0.2785,0.2787,0.2789,0,0,0,0,0,0,0,0,0,0,0,0,0,0.2631,0.2597,0.2665,0.268,0.2682,0.2713,0.2714,0.2714,0.2725,0.2725,0.2725,0.2725,0.2784,0.2787,0.2789,0.2807,0,0,0.2797,0.2798,0,0,0,0,0,0,0,0,0.2629,0.2633,0.2677,0.2679,0.2682,0.2716,0.2712,0.2747,0.2725,0.2706,0.2725,0.2725,0.2765,0.2769,0.2775,0.281,0.2812,0.2797,0.2799,0.28,0.2801,0,0,0,0,0,0,0,0.2626,0.2631,0.2682,0.2678,0.2681,0.2689,0.2694,0.2718,0.2734,0.2708,0.2709,0.2719,0.2766,0.2772,0.2776,0.2813,0.2797,0.2799,0.2801,0.2802,0.2928,0.2929,0,0,0,0,0,0,0.2626,0.2629,0.268,0.2683,0.2658,0.2691,0.2695,0.2703,0.2733,0.2739,0.2719,0.272,0.2768,0.2773,0.2778,0.2871,0.28,0.2802,0.2804,0.2926,0.2928,0.293,0,0,0,0,0,0,0.2624,0.263,0.2678,0.2659,0.2666,0.2692,0.27,0.2704,0.2722,0.2742,0.2747,0.2736,0.2768,0.2775,0.2819,0.2871,0.2803,0.2806,0.2924,0.2927,0.2929,0.3011,0,0,0,0,0,0,0.2622,0.2629,0.2637,0.2659,0.2668,0.2707,0.2701,0.2705,0.2729,0.273,0.2758,0.2763,0.2768,0.2816,0.2822,0.2873,0.2808,0.2921,0.2925,0.2928,0.3006,0.3017,0.3025,0,0,0,0,0,0.2619,0.2627,0.2636,0.2643,0.2677,0.2708,0.2713,0.2729,0.273,0.2743,0.2767,0.2762,0.2842,0.2819,0.2826,0.2879,0.292,0.2924,0.2928,0.3002,0.3015,0.3025,0,0,0,0,0,0,0.2602,0.263,0.2641,0.2657,0.2687,0.2711,0.2725,0.2738,0.2766,0.277,0.2783,0.2791,0.2858,0.2849,0.2824,0.2924,0.2881,0.2887,0.2936,0.2947,0.2957,0.2987,0.281,0,0,0,0,0,0.2603,0.2615,0.2648,0.2664,0.2679,0.2705,0.2721,0.2736,0.2763,0.2775,0.2795,0.2825,0.2879,0.2895,0.2931,0.2975,0.3007,0.3014,0.3023,0.3031,0.3061,0.3164,0.3186,0.2944,0.2944,0.2943,0,0,0.2599,0.2619,0.2624,0.2661,0.2683,0.2726,0.2714,0.2745,0.279,0.2779,0.2837,0.2865,0.2901,0.2965,0.2993,0.2962,0.3112,0.3037,0.3044,0.3069,0.3171,0.3195,0.3216,0.2946,0.2946,0.2945,0,0,0.2607,0.2618,0.2638,0.2669,0.2713,0.2738,0.2752,0.2787,0.2811,0.2859,0.2889,0.2944,0.2983,0.3041,0.3071,0.3151,0.3169,0.3158,0.3224,0.3323,0.3344,0.3364,0.3414,0.3437,0.3151,0.3151,0.3151,0,0.2605,0.2643,0.2651,0.2691,0.2728,0.275,0.28,0.2832,0.2879,0.2915,0.2883,0.3023,0.3027,0.3171,0.3188,0.3178,0.3223,0.3177,0.3338,0.3358,0.3377,0.3424,0.3448,0.3155,0.3155,0.3154,0.3154,0,0.2645,0.2679,0.2695,0.2759,0.2796,0.2839,0.2892,0.2936,0.2955,0.2987,0.3106,0.314,0.3228,0.3237,0.3228,0.3383,0.3368,0.335,0.3313,0.3407,0.3449,0.3473,0.3162,0.316,0.3159,0.3158,0,0,0.2638,0.2709,0.2719,0.2753,0.284,0.2866,0.2962,0.3049,0.3108,0.3163,0.3261,0.3352,0.338,0.342,0.345,0.3515,0.3648,0.3484,0.3487,0.354,0.3855,0.3715,0.3727,0.3671,0.3676,0.368,0.3824,0,0.2678,0.2747,0.2789,0.2868,0.291,0.2975,0.305,0.3128,0.3185,0.3273,0.3364,0.3448,0.3453,0.3494,0.3588,0.3645,0.3721,0.361,0.3751,0.3755,0.3626,0.3755,0.3451,0.3544,0.3847,0.3851,0.3854,0,0.2728,0.2759,0.284,0.2914,0.2939,0.2997,0.3123,0.3192,0.333,0.3376,0.3523,0.3572,0.3738,0.368,0.3904,0.3841,0.3866,0.3886,0.3892,0.3758,0.3662,0.3503,0.3576,0.3895,0.3892,0.3889,0.3886,0,0.2722,0.2805,0.2865,0.2895,0.2983,0.304,0.3098,0.3223,0.329,0.3456,0.351,0.3727,0.3824,0.3946,0.4009,0.3971,0.4202,0.4146,0.4057,0.4046,0.3812,0.3771,0.4294,0.4294,0.4294,0.4294,0.4293,0,0.2762,0.2789,0.2858,0.2883,0.2932,0.3017,0.3111,0.3189,0.3342,0.3419,0.3567,0.3682,0.3893,0.4034,0.4081,0.4166,0.4284,0.4112,0.4099,0.3825,0.3785,0.4104,0.4079,0.4299,0.4298,0.4297,0.4296,0,0.2727,0.2787,0.2834,0.2917,0.2929,0.2965,0.308,0.3142,0.3294,0.3415,0.3469,0.3702,0.389,0.4058,0.4245,0.4232,0.4312,0.4294,0.3935,0.3877,0.4065,0.4044,0.4231,0.4228,0.4225,0.4223,0.4221,0,0.2712,0.2743,0.2815,0.2824,0.2852,0.2916,0.2947,0.3098,0.3182,0.3404,0.3455,0.3682,0.3824,0.4073,0.4111,0.4212,0.4291,0.3926,0.3788,0.4103,0.4072,0.4055,0.4037,0.3506,0.3499,0.3493,0.3488,0,0.2657,0.2698,0.2715,0.275,0.2778,0.2808,0.2884,0.2943,0.3124,0.324,0.3431,0.3558,0.3782,0.378,0.3872,0.3864,0.3891,0.3797,0.4285,0.3549,0.3426,0.3393,0.3399,0.3432,0.3438,0.3442,0.3445,0.3447,0.2582,0.2587,0.2638,0.2642,0.2677,0.2693,0.2681,0.2809,0.2914,0.3026,0.3264,0.3348,0.3471,0.3474,0.3413,0.3355,0.3609,0.3444,0.3462,0.3486,0.3357,0.3234,0.3178,0.3182,0.3185,0.3188,0.3191,0,0.2492,0.2503,0.2517,0.252,0.2493,0.2616,0.2613,0.2564,0.263,0.2806,0.2956,0.2814,0.2835,0.2946,0.2783,0.2784,0.2736,0.2662,0.2587,0.2646,0.2697,0.2524,0.2127,0.2123,0.212,0.2116,0,0,0.244,0.2395,0.2397,0.2318,0.2373,0.23,0.2291,0.2303,0.2339,0.2313,0.2382,0.2652,0.2842,0.244,0.2411,0.2239,0.2403,0.2139,0.3003,0.2972,0.3018,0.3172,0.2976,0,0,0,0,0]},{"header":{"parameterUnit":"m.s-1","parameterCategory":2,"la1":30.2991,"la2":30.254,"lo1":-89.0895,"lo2":-89.0444,"dy":0.0017,"dx":0.0017,"nx":28,"ny":28,"refTime":"2025-08-03T21:00:00:Z","depth":"2","parameterNumber":3,"parameterNumberName":"V-component_of_CURRENTS"},"data":[0,0,0,0,0,0,0,0,0,0,0,0,0,0,0,0,0,0,0,0,0,0,0,0,0,0,0,0,0,0,0,0,0,0,0,0,0,0,0,0,0,0,0,0,0,0,0,0,0,0,0,0,0,0,0,0,0,0,0.0076,0.0075,0,-0.0005,-0.0006,-0.0007,-0.0061,-0.0062,-0.0062,-0.0062,-0.013,-0.0132,-0.0133,0,0,0,0,0,0,0,0,0,0,0,0,0,0.0126,0.0125,0.0076,0.0075,0.0074,-0.0005,-0.0006,-0.0007,-0.0061,-0.0062,-0.0062,-0.0062,-0.013,-0.0131,-0.0133,0,0,0,0,0,0,0,0,0,0,0,0,0,0.0079,0.0125,0.0076,0.0039,0.0034,-0.0005,-0.0006,-0.0008,-0.0061,-0.0062,-0.0062,-0.0062,-0.0129,-0.0131,-0.0134,-0.014,0,0,-0.0141,-0.0142,0,0,0,0,0,0,0,0,0.0082,0.0077,0.0045,0.0041,0.0036,-0.0022,-0.0014,-0.0051,-0.0061,-0.0026,-0.0062,-0.0063,-0.0092,-0.0097,-0.0113,-0.0143,-0.0146,-0.0141,-0.0142,-0.0143,-0.0144,0,0,0,0,0,0,0,0.0085,0.008,0.0043,0.0044,0.0039,0.0006,-0.0001,-0.0021,-0.0056,-0.0029,-0.0033,-0.004,-0.0094,-0.0111,-0.0115,-0.0147,-0.0141,-0.0143,-0.0144,-0.0145,-0.0166,-0.0166,0,0,0,0,0,0,0.0101,0.0084,0.0045,0.004,0.006,0.0006,-0.0002,-0.0004,-0.0057,-0.0065,-0.004,-0.0042,-0.0107,-0.0113,-0.0118,-0.0099,-0.0143,-0.0145,-0.0147,-0.0167,-0.0166,-0.0165,0,0,0,0,0,0,0.0103,0.0099,0.0049,0.0061,0.0052,0.0006,0.0003,-0.0005,-0.0019,-0.0064,-0.0073,-0.0043,-0.0107,-0.0115,-0.0127,-0.0103,-0.0147,-0.0149,-0.0168,-0.0167,-0.0166,-0.0079,0,0,0,0,0,0,0.0105,0.01,0.0104,0.0062,0.0052,0.0038,0.0003,-0.0007,-0.0022,-0.0026,-0.007,-0.0077,-0.0108,-0.0123,-0.0129,-0.0107,-0.015,-0.0169,-0.0168,-0.0166,-0.0083,-0.0075,-0.0068,0,0,0,0,0,0.0107,0.0119,0.0105,0.01,0.006,0.0039,0.0031,-0.0005,-0.0022,-0.002,-0.005,-0.0076,-0.0117,-0.0124,-0.0132,-0.0109,-0.017,-0.0168,-0.0166,-0.0086,-0.0076,-0.0068,0,0,0,0,0,0,0.0139,0.0113,0.0097,0.01,0.0076,0.003,0.0028,0.0003,-0.0021,-0.0023,-0.0068,-0.0077,-0.0079,-0.0106,-0.0113,-0.0111,-0.0147,-0.0146,-0.0083,-0.0074,-0.0067,-0.0055,-0.0152,0,0,0,0,0,0.015,0.0153,0.012,0.0121,0.0115,0.0073,0.0059,0.0037,0.0009,-0.0003,-0.0034,-0.0062,-0.0078,-0.0085,-0.0109,-0.0107,-0.0135,-0.0097,-0.0089,-0.0083,-0.0078,-0.0091,-0.0084,-0.0159,-0.0159,-0.0159,0,0,0.0159,0.0148,0.0147,0.0128,0.0106,0.0109,0.0064,0.0053,0.0057,-0.0004,-0.0007,-0.0039,-0.0073,-0.0072,-0.0074,-0.009,-0.0077,-0.008,-0.0074,-0.0073,-0.0089,-0.0081,-0.0075,-0.0158,-0.0158,-0.0158,0,0,0.019,0.0175,0.0191,0.0181,0.0161,0.0138,0.0141,0.0104,0.009,0.0081,0.0043,0.0029,-0.0005,-0.0019,-0.003,0.0005,-0.004,-0.0003,0.0048,0.0036,0.0042,0.0047,0.0018,0.002,0.0004,0.0004,0.0005,0,0.0201,0.0223,0.0192,0.0208,0.021,0.0159,0.0182,0.016,0.0123,0.0123,0.0093,0.0056,0.0024,0.0037,0.0043,0.0024,-0.0,0.002,0.0047,0.0051,0.0055,0.0024,0.0025,0.0009,0.0008,0.0008,0.0007,0,0.0248,0.0265,0.0276,0.0283,0.0278,0.0289,0.0262,0.0257,0.0231,0.0206,0.0202,0.0154,0.0137,0.0124,0.009,0.0108,0.0076,0.0056,0.0027,0.0068,0.0032,0.0032,0.0015,0.0014,0.0012,0.0011,0,0,0.0276,0.0306,0.0309,0.034,0.0325,0.0333,0.0342,0.0342,0.0363,0.0312,0.0333,0.029,0.0257,0.0241,0.0202,0.0182,0.018,0.0133,0.013,0.0109,0.0139,0.008,0.0072,0.0164,0.0165,0.0165,0.0103,0,0.0325,0.039,0.0382,0.044,0.0475,0.0444,0.046,0.045,0.043,0.0434,0.0379,0.0375,0.0306,0.0303,0.0275,0.0209,0.0182,0.0197,0.0098,0.0094,0.0041,0.0072,0.0097,0.0041,0.0102,0.0102,0.0101,0,0.0378,0.042,0.0492,0.0546,0.0557,0.0575,0.0608,0.062,0.0599,0.0587,0.0563,0.0505,0.0473,0.0404,0.0315,0.0327,0.024,0.0175,0.0171,0.0085,0.0034,0.0009,0.0036,0.01,0.01,0.01,0.01,0,0.0435,0.05,0.057,0.0585,0.0625,0.0651,0.0669,0.0665,0.0709,0.0684,0.0708,0.0633,0.0625,0.0507,0.0356,0.034,0.0243,0.0208,0.0069,0.0063,0.0049,0.0041,0.0138,0.0139,0.0139,0.0139,0.0139,0,0.0501,0.0556,0.0607,0.0643,0.0734,0.0727,0.0811,0.0811,0.0844,0.0916,0.08,0.0842,0.0651,0.0562,0.0402,0.0237,0.0281,0.0081,0.0048,0.0078,0.0074,0.0095,0.0091,0.0136,0.0137,0.0137,0.0138,0,0.0554,0.0584,0.0672,0.0734,0.0763,0.0826,0.0923,0.0999,0.0996,0.1089,0.1088,0.1018,0.0895,0.0677,0.0488,0.0321,0.0147,0.0071,0.0104,0.0075,-0.004,-0.0039,-0.0083,-0.0085,-0.0087,-0.0089,-0.0091,0,0.0594,0.0644,0.0741,0.0811,0.0845,0.0943,0.1031,0.1075,0.1172,0.1213,0.1285,0.117,0.1124,0.0798,0.047,0.0162,0.0133,-0.0027,-0.0061,-0.0033,-0.006,-0.0055,-0.0051,-0.0045,-0.0046,-0.0047,-0.0047,0,0.0671,0.0695,0.0764,0.0908,0.1015,0.1158,0.1282,0.139,0.1457,0.1517,0.1601,0.155,0.121,0.0898,0.0429,0.0219,0.0016,-0.0055,-0.0007,-0.0001,-0.0004,-0.0029,-0.0025,-0.0055,-0.0054,-0.0053,-0.0053,-0.0053,0.0727,0.0786,0.088,0.1024,0.1164,0.1367,0.1501,0.1651,0.1814,0.19,0.1838,0.1743,0.1351,0.0749,0.0374,-0.0039,-0.0024,-0.0165,-0.0159,-0.0152,-0.0145,-0.0153,-0.023,-0.023,-0.023,-0.0231,-0.0231,0,0.0802,0.0872,0.1004,0.1189,0.1372,0.1431,0.1675,0.1798,0.2007,0.2038,0.2056,0.1649,0.1269,0.0822,0.0209,-0.0156,-0.0168,-0.0269,-0.0193,-0.0184,-0.0177,-0.0168,-0.0261,-0.0262,-0.0262,-0.0263,0,0,0.0842,0.0966,0.1035,0.1337,0.1487,0.1738,0.1889,0.2052,0.2123,0.2138,0.2052,0.1904,0.137,0.0928,0.0434,0.0093,0.004,0.002,0.0079,0.0236,0.0248,-0.0089,-0.0062,0,0,0,0,0]}],[{"header":{"parameterUnit":"m.s-1","parameterCategory":2,"la1":30.2991,"la2":30.254,"lo1":-89.0895,"lo2":-89.0444,"dy":0.0017,"dx":0.0017,"nx":28,"ny":28,"refTime":"2025-08-03T21:00:00:Z","depth":"4","parameterNumber":2,"parameterNumberName":"U-component_of_CURRENTS"},"data":[0,0,0,0,0,0,0,0,0,0,0,0,0,0,0,0,0,0,0,0,0,0,0,0,0,0,0,0,0,0,0,0,0,0,0,0,0,0,0,0,0,0,0,0,0,0,0,0,0,0,0,0,0,0,0,0,0,0,0.1721,0.1722,0,0.1811,0.1812,0.1813,0.1879,0.188,0.1881,0.1882,0.1898,0.1898,0.1898,0,0,0,0,0,0,0,0,0,0,0,0,0,0.1614,0.1615,0.1721,0.1722,0.1723,0.1811,0.1812,0.1813,0.1879,0.188,0.1881,0.1882,0.1898,0.1898,0.1898,0,0,0,0,0,0,0,0,0,0,0,0,0,0.1676,0.1616,0.1721,0.1768,0.1774,0.1811,0.1812,0.1813,0.1879,0.188,0.1881,0.1882,0.1899,0.1898,0.1898,0.1873,0,0,0.1897,0.1897,0,0,0,0,0,0,0,0,0.1672,0.168,0.176,0.1765,0.1771,0.1837,0.1781,0.183,0.1879,0.1837,0.1882,0.1883,0.1871,0.1873,0.1886,0.1874,0.1875,0.1897,0.1897,0.1896,0.1896,0,0,0,0,0,0,0,0.1668,0.1676,0.1755,0.1761,0.1768,0.1788,0.1798,0.179,0.1844,0.1841,0.1846,0.1859,0.1874,0.1887,0.1887,0.1875,0.1897,0.1896,0.1896,0.1896,0.1962,0.1964,0,0,0,0,0,0,0.1659,0.1672,0.1752,0.1758,0.1725,0.1789,0.18,0.1813,0.1846,0.1853,0.1858,0.1862,0.1887,0.1887,0.1888,0.1943,0.1896,0.1896,0.1896,0.196,0.1962,0.1964,0,0,0,0,0,0,0.1656,0.1665,0.1748,0.1718,0.173,0.179,0.1804,0.1814,0.1865,0.186,0.1866,0.1903,0.1888,0.1888,0.1916,0.1941,0.1896,0.1896,0.1957,0.196,0.1963,0.2,0,0,0,0,0,0,0.1653,0.1663,0.1688,0.1717,0.1732,0.1793,0.1803,0.1815,0.187,0.1877,0.1899,0.19,0.1888,0.1917,0.1916,0.1939,0.1895,0.1955,0.1959,0.1962,0.1996,0.2004,0.201,0,0,0,0,0,0.1648,0.167,0.1689,0.17,0.1758,0.1795,0.1805,0.1848,0.1871,0.1898,0.1917,0.1902,0.194,0.1918,0.1916,0.194,0.1953,0.1958,0.1962,0.1993,0.2002,0.201,0,0,0,0,0,0,0.1639,0.1679,0.1701,0.1736,0.1775,0.1807,0.1842,0.1868,0.1907,0.1922,0.1916,0.1918,0.196,0.1947,0.1923,0.1975,0.1948,0.1952,0.1972,0.1981,0.1988,0.2036,0.1895,0,0,0,0,0,0.1646,0.1676,0.1714,0.1748,0.1769,0.1813,0.1842,0.1871,0.19,0.1922,0.1939,0.1957,0.1971,0.1975,0.199,0.2002,0.2023,0.2022,0.2029,0.2035,0.2077,0.2131,0.2147,0.1979,0.1979,0.1979,0,0,0.1651,0.168,0.1699,0.1749,0.1785,0.1818,0.1834,0.1887,0.1925,0.1912,0.1976,0.1988,0.1986,0.2014,0.203,0.2005,0.2089,0.2041,0.2045,0.2085,0.2137,0.2154,0.2168,0.1982,0.1981,0.1981,0,0,0.1664,0.1705,0.1731,0.1766,0.1825,0.1848,0.1871,0.1924,0.1965,0.2011,0.2022,0.2062,0.2071,0.2087,0.2088,0.2144,0.2135,0.214,0.2197,0.2247,0.2262,0.2275,0.2296,0.2311,0.2129,0.2129,0.2129,0,0.1674,0.1708,0.1747,0.1781,0.1816,0.1864,0.1901,0.1942,0.2002,0.204,0.2042,0.2116,0.2113,0.2155,0.2181,0.2162,0.218,0.2155,0.2256,0.227,0.2283,0.2302,0.2318,0.2131,0.2131,0.2131,0.213,0,0.1693,0.1736,0.1757,0.1813,0.1858,0.1898,0.1954,0.2013,0.2061,0.2099,0.2182,0.2196,0.2242,0.2239,0.2226,0.2311,0.229,0.2266,0.2231,0.2302,0.2317,0.2333,0.2134,0.2134,0.2133,0.2132,0,0,0.1665,0.1752,0.1764,0.1796,0.1881,0.191,0.1992,0.2067,0.2119,0.2193,0.2266,0.2316,0.2348,0.2358,0.2352,0.2396,0.2485,0.2376,0.2377,0.2392,0.2586,0.2402,0.2401,0.2473,0.2477,0.248,0.255,0,0.167,0.1725,0.1781,0.1843,0.1872,0.1957,0.2018,0.2101,0.2168,0.2248,0.2313,0.2376,0.238,0.2406,0.2461,0.2484,0.2534,0.2468,0.2523,0.2525,0.2348,0.2416,0.2492,0.2561,0.2565,0.2568,0.2569,0,0.1665,0.1701,0.1763,0.1852,0.1876,0.193,0.2044,0.2109,0.2233,0.2293,0.2393,0.2441,0.2545,0.2527,0.2643,0.26,0.2623,0.2635,0.2636,0.2475,0.2372,0.2485,0.2598,0.2596,0.2594,0.2592,0.259,0,0.16,0.169,0.1739,0.177,0.1875,0.1938,0.2006,0.2128,0.2196,0.234,0.2403,0.2521,0.2589,0.2663,0.2713,0.269,0.2819,0.2772,0.2634,0.262,0.2747,0.2733,0.2879,0.2879,0.2879,0.2879,0.2879,0,0.1563,0.1599,0.1715,0.1735,0.1795,0.19,0.1986,0.2075,0.2213,0.2287,0.2427,0.2493,0.2636,0.2716,0.275,0.2737,0.2852,0.2676,0.2639,0.2755,0.2741,0.2756,0.274,0.2881,0.2881,0.288,0.288,0,0.1472,0.1554,0.1606,0.1725,0.1766,0.1812,0.1965,0.2015,0.2171,0.2279,0.2339,0.2508,0.261,0.2715,0.2819,0.2753,0.2771,0.274,0.2863,0.2826,0.2529,0.2515,0.2589,0.2583,0.2578,0.2574,0.2571,0,0.1421,0.1442,0.1574,0.16,0.1657,0.1747,0.18,0.1973,0.2038,0.2257,0.2291,0.2459,0.2554,0.256,0.2672,0.2721,0.2698,0.2675,0.2615,0.255,0.2507,0.2501,0.2493,0.2563,0.2562,0.2561,0.256,0,0.1305,0.1379,0.1422,0.1483,0.1547,0.1603,0.1707,0.1744,0.1944,0.2112,0.2204,0.2276,0.2378,0.2455,0.2513,0.2541,0.2668,0.2625,0.2634,0.2578,0.252,0.2481,0.2479,0.2543,0.2546,0.2547,0.2548,0,0.122,0.1227,0.1304,0.1345,0.1407,0.1428,0.151,0.1602,0.1703,0.197,0.1989,0.2177,0.2347,0.2362,0.2411,0.2428,0.2397,0.231,0.2335,0.2354,0.2245,0.2136,0.2033,0,0,0,0,0,0.1123,0.1122,0.1149,0.1189,0.1242,0.129,0.1424,0.1521,0.173,0.1747,0.1875,0.1971,0.2063,0.2153,0.2128,0.2291,0.2387,0.2247,0.2294,0.2452,0.2471,0.2364,0,0,0,0,0,0,0.1056,0.1079,0.1103,0.1046,0.1043,0.1095,0.1176,0.1322,0.1359,0.1585,0.1655,0.1832,0.1957,0.206,0.2082,0.2111,0.2095,0.2376,0.237,0.2441,0.2458,0.2474,0.237,0,0,0,0,0]},{"header":{"parameterUnit":"m.s-1","parameterCategory":2,"la1":30.2991,"la2":30.254,"lo1":-89.0895,"lo2":-89.0444,"dy":0.0017,"dx":0.0017,"nx":28,"ny":28,"refTime":"2025-08-03T21:00:00:Z","depth":"4","parameterNumber":3,"parameterNumberName":"V-component_of_CURRENTS"},"data":[0,0,0,0,0,0,0,0,0,0,0,0,0,0,0,0,0,0,0,0,0,0,0,0,0,0,0,0,0,0,0,0,0,0,0,0,0,0,0,0,0,0,0,0,0,0,0,0,0,0,0,0,0,0,0,0,0,0,0.0058,0.0058,0,0.0001,0.0,-0.0,-0.004,-0.004,-0.004,-0.004,-0.0073,-0.0074,-0.0074,0,0,0,0,0,0,0,0,0,0,0,0,0,0.0094,0.0094,0.0058,0.0058,0.0057,0.0001,0.0,-0.0001,-0.0039,-0.004,-0.004,-0.004,-0.0073,-0.0074,-0.0074,0,0,0,0,0,0,0,0,0,0,0,0,0,0.0061,0.0094,0.0058,0.0031,0.0028,0.0001,0.0,-0.0001,-0.0039,-0.004,-0.004,-0.004,-0.0073,-0.0074,-0.0075,-0.0074,0,0,-0.0078,-0.0078,0,0,0,0,0,0,0,0,0.0063,0.006,0.0036,0.0033,0.003,-0.0012,0.0001,-0.0024,-0.0039,-0.0014,-0.004,-0.0041,-0.005,-0.0053,-0.0064,-0.0076,-0.0077,-0.0078,-0.0078,-0.0079,-0.0079,0,0,0,0,0,0,0,0.0065,0.0062,0.0035,0.0035,0.0032,0.0008,0.0004,-0.0005,-0.003,-0.0017,-0.0019,-0.0025,-0.0051,-0.0063,-0.0065,-0.0078,-0.0078,-0.0079,-0.0079,-0.008,-0.0085,-0.0084,0,0,0,0,0,0,0.0076,0.0064,0.0037,0.0033,0.0047,0.0008,0.0003,0.0001,-0.003,-0.0035,-0.0024,-0.0026,-0.0061,-0.0064,-0.0066,-0.0049,-0.0079,-0.008,-0.008,-0.0085,-0.0085,-0.0084,0,0,0,0,0,0,0.0077,0.0075,0.0039,0.0048,0.0042,0.0008,0.0007,0.0,-0.0009,-0.0036,-0.0041,-0.0027,-0.0061,-0.0065,-0.0068,-0.0051,-0.008,-0.0081,-0.0086,-0.0085,-0.0084,-0.0026,0,0,0,0,0,0,0.0079,0.0076,0.0079,0.0049,0.0042,0.0032,0.0007,-0.0,-0.0012,-0.0015,-0.004,-0.0044,-0.0062,-0.0067,-0.0069,-0.0053,-0.0082,-0.0086,-0.0086,-0.0085,-0.0029,-0.0024,-0.0019,0,0,0,0,0,0.008,0.0089,0.008,0.0076,0.0048,0.0032,0.0027,0.0001,-0.0011,-0.001,-0.0028,-0.0043,-0.0063,-0.0067,-0.007,-0.0054,-0.0087,-0.0086,-0.0085,-0.0031,-0.0025,-0.0019,0,0,0,0,0,0,0.0104,0.0085,0.0074,0.0076,0.0059,0.0026,0.0025,0.0007,-0.0008,-0.0009,-0.0037,-0.0041,-0.0039,-0.0055,-0.0059,-0.0054,-0.0077,-0.0077,-0.0035,-0.003,-0.0025,-0.0024,-0.0083,0,0,0,0,0,0.0113,0.0115,0.0091,0.0092,0.0088,0.0057,0.0048,0.0032,0.0013,0.0006,-0.0013,-0.0029,-0.0038,-0.004,-0.0053,-0.0048,-0.0083,-0.004,-0.0035,-0.0031,-0.0034,-0.0073,-0.0072,-0.0081,-0.0081,-0.0081,0,0,0.012,0.0112,0.0111,0.0098,0.0083,0.0085,0.0051,0.0044,0.0047,0.0007,0.0007,-0.0013,-0.0034,-0.003,-0.003,-0.004,-0.0047,-0.003,-0.0026,-0.0031,-0.0071,-0.0071,-0.007,-0.008,-0.008,-0.008,0,0,0.0142,0.0133,0.0144,0.0137,0.0123,0.0107,0.0108,0.0082,0.0072,0.0068,0.0042,0.003,0.0017,0.0003,-0.0004,0.0019,-0.0022,0.0019,0.0047,0.001,0.001,0.001,-0.0033,-0.0038,0.0024,0.0024,0.0024,0,0.0151,0.0166,0.0144,0.0156,0.0159,0.0122,0.0139,0.0123,0.0098,0.0095,0.0078,0.0049,0.0032,0.0033,0.0039,0.0031,-0.0003,0.003,0.0016,0.0015,0.0013,-0.0031,-0.0037,0.0027,0.0026,0.0026,0.0026,0,0.0183,0.0196,0.0204,0.021,0.0209,0.0217,0.0198,0.0194,0.0177,0.0156,0.0146,0.0112,0.0095,0.0089,0.0072,0.0063,0.0037,0.0025,0.0002,0.0018,-0.003,-0.0037,0.0031,0.003,0.0029,0.0028,0,0,0.0198,0.0224,0.0226,0.0251,0.0243,0.0251,0.0256,0.0253,0.0265,0.0224,0.0228,0.0199,0.0167,0.0156,0.0129,0.0093,0.0057,0.0059,0.0056,0.0018,-0.0034,-0.0045,-0.0054,0.004,0.0039,0.0039,-0.0064,0,0.023,0.0279,0.0276,0.0322,0.0349,0.0329,0.0343,0.0333,0.0315,0.0307,0.0255,0.025,0.0198,0.0198,0.015,0.0081,0.0041,0.0085,-0.0046,-0.005,-0.006,-0.0061,0.0036,-0.0069,-0.0071,-0.0072,-0.0073,0,0.0262,0.0296,0.0353,0.0401,0.041,0.0429,0.0453,0.0461,0.0431,0.0415,0.0377,0.0333,0.0277,0.0236,0.0104,0.0133,0.0055,-0.0008,-0.0014,-0.005,-0.0073,-0.009,-0.0087,-0.0086,-0.0085,-0.0084,-0.0083,0,0.0299,0.0351,0.0407,0.0421,0.0461,0.0485,0.0502,0.0494,0.0522,0.0484,0.0493,0.0398,0.0371,0.0247,0.0106,0.0107,-0.0049,-0.0061,-0.0147,-0.0149,-0.0135,-0.0134,-0.015,-0.015,-0.015,-0.015,-0.0149,0,0.0339,0.0386,0.0436,0.0467,0.0543,0.0545,0.0612,0.0606,0.0615,0.065,0.0557,0.0552,0.0373,0.0264,0.0122,-0.0043,-0.0041,-0.0149,-0.0176,-0.0108,-0.0103,-0.0141,-0.0138,-0.0154,-0.0153,-0.0152,-0.0151,0,0.0376,0.0403,0.0478,0.0537,0.0565,0.062,0.0701,0.075,0.0737,0.0778,0.0775,0.0667,0.051,0.0323,0.0117,-0.0001,-0.0166,-0.0219,-0.014,-0.016,-0.0247,-0.0241,-0.0328,-0.0329,-0.033,-0.0331,-0.0332,0,0.0404,0.0445,0.0535,0.0589,0.0624,0.071,0.0777,0.0808,0.0858,0.0848,0.0868,0.0739,0.064,0.0337,0.0122,-0.0162,-0.0194,-0.0279,-0.0263,-0.0248,-0.0266,-0.0257,-0.0249,-0.0333,-0.0334,-0.0334,-0.0334,0,0.0458,0.0486,0.0544,0.0654,0.074,0.0846,0.0933,0.098,0.1011,0.1009,0.0952,0.079,0.0608,0.0346,0.0124,-0.0077,-0.0229,-0.029,-0.0289,-0.0275,-0.0256,-0.027,-0.0261,-0.0338,-0.0337,-0.0337,-0.0337,0,0.0494,0.0543,0.0616,0.0715,0.0827,0.0936,0.0986,0.104,0.1087,0.1064,0.1038,0.083,0.0705,0.039,0.0182,-0.0023,-0.0071,-0.0125,-0.0133,-0.0132,-0.005,0.0005,-0.0023,0,0,0,0,0,0.0528,0.0582,0.0674,0.0784,0.0897,0.0968,0.1071,0.1109,0.1139,0.1118,0.1081,0.0907,0.059,0.0442,0.0238,0.0152,-0.0114,-0.0095,-0.0182,-0.0357,-0.0353,-0.0293,0,0,0,0,0,0,0.0546,0.063,0.0674,0.0823,0.0908,0.1048,0.1119,0.1145,0.1125,0.1109,0.094,0.0859,0.0544,0.0706,0.0234,0.0169,0.0088,-0.0246,-0.025,-0.036,-0.0356,-0.0353,-0.0289,0,0,0,0,0]}]]